Location: Sebastopol
(38.4021°N, 122.8239°W)
Time: 14:46:59
(UTC+00:00)

Cosmos 1703 - Pass Details

Date: 29 October 2020
Orbit: 525 x 538 km, 82.5° (Epoch: 30 November)

Event Time Altitude Azimuth Distance (km) Brightness Sun altitude
Rises 13:45:51 0° 179° (S) 2,643 6.9 -10.2°
Reaches altitude 10° 13:47:59 10° 175° (S) 1,759 6.1 -9.8°
Maximum altitude 13:51:48 62° 95° (E) 594 3.8 -9.1°
Drops below altitude 10° 13:55:39 10° 14° (NNE) 1,779 6.0 -8.3°
Sets 13:57:49 0° 11° (NNE) 2,675 6.8 -7.9°
